Погода в Старопышминске

Россия / Свердловская область     56°55′56″N   60°54′05″E
темп.,
°C
ветер,
м/с
пор.,
м/с
влажн.,
%
обл.,
%
осадки,
мм/ч
давл.,
гПа
погр.,
м
23 октября, сб
сб2323:00+8юз61486100 0.6 9971221
02:00+8зюз71584100 0.0 9981075
05:00+8зюз71483100 0.1 9991027
08:00+9зюз61480100 0.1 10001310
11:00+9зюз71571100 0.1 10011594
14:00+10з717605 0.0 10021879
17:00+8з715635 0.0 10051385
20:00+7з614665 0.0 10071126
24 октября, вс
вс2423:00+6зюз51377100 0.0 1009959
02:00+5зюз5127762 0.0 1010766
05:00+4юз4108733 0.0 1011463
08:00+3юз3991100 0.0 1011306
11:00+6ююз3880100 0.0 1010380
14:00+4вюв2495100 2.4 1008584
17:00+3ссв3597100 6.2 1005368
20:00+2з41096100 0.8 1007501
25 октября, пн
пн2523:00+4з5128394 0.9 10081212
02:00+3зюз512765 0.1 10091079
05:00+3з5117499 0.1 10101154
08:00+2зюз498457 0.0 1011814
11:00+3зюз4876100 0.0 1012757
14:00+4зюз4769100 0.0 10121129
17:00+3зюз3773100 0.0 1011465
20:00+2зюз3782100 0.0 1011545
26 октября, вт
вт2623:000сз51196100 1.0 1011636
02:00−1сз597969 0.3 1013913
05:00−3сз5118266 0.3 1016726
08:00−3зсз5107498 0.0 1017996
11:00−1зсз586580 0.0 10181014
14:000зсз58535 0.0 10181326
17:00−1з496139 0.0 1018810
20:00−1з396578 0.0 1019836
27 октября, ср
ср2723:00−2юз399286 0.1 1019603
02:00−2юз399381 0.2 1018604
05:00−1зюз399395 0.4 1018632
08:00−1юз399589 0.4 1018570
11:000зюз3792100 0.9 1019531
14:00+2зюз4782100 0.2 1018778
17:00+1юз3995100 0.3 1018583
20:00+1юз41090100 0.1 1018591